When you browse on this site, cookies collect data to enhance your experience and personalize the content and advertising you see.
Visit our Privacy Policy to learn more. By continuing to use the site, you agree to this use of cookies and data.
  • In Deutschland
  • Länderverzeichnis
  • Für 7 Tage
  • Wassertemperatur
  • Wetterkarte
  • Widgets
  • user-avatar
    Anmelden

    Stündliche Wetter Kaprun

    Heute, 18 August, Sonntag

    Zeit Temperatur Niederschläge Wind Luftdruck Luftfeuchtigkeit
    00:00 +10°C° 0 mm 1 m/S 599 mmHg 80%
    01:00 +10°C° 0 mm 1 m/S 599 mmHg 82%
    02:00 +10°C° 0 mm 1 m/S 599 mmHg 80%
    03:00 +10°C° 0 mm 1 m/S 599 mmHg 78%
    04:00 +10°C° 0 mm 1 m/S 599 mmHg 76%
    05:00 +11°C° 0 mm 1 m/S 599 mmHg 74%
    06:00 +12°C° 0 mm 1 m/S 600 mmHg 72%
    07:00 +14°C° 0 mm 1 m/S 601 mmHg 69%
    08:00 +16°C° 0 mm 1 m/S 601 mmHg 62%
    09:00 +19°C° 0 mm 1 m/S 602 mmHg 56%
    10:00 +21°C° 0 mm 1 m/S 603 mmHg 49%
    11:00 +22°C° 0 mm 1 m/S 603 mmHg 48%
    12:00 +23°C° 0 mm 2 m/S 603 mmHg 47%
    13:00 +23°C° 0 mm 2 m/S 603 mmHg 45%
    14:00 +21°C° 0.1 mm 2 m/S 603 mmHg 53%
    15:00 +20°C° 0.1 mm 2 m/S 602 mmHg 61%
    16:00 +19°C° 0.1 mm 2 m/S 601 mmHg 68%
    17:00 +17°C° 0.3 mm 2 m/S 601 mmHg 76%
    18:00 +15°C° 0.3 mm 1 m/S 600 mmHg 83%
    19:00 +14°C° 0.3 mm 1 m/S 599 mmHg 91%
    20:00 +13°C° 0.3 mm 1 m/S 599 mmHg 92%
    21:00 +12°C° 0.3 mm 2 m/S 599 mmHg 94%
    22:00 +12°C° 0.3 mm 2 m/S 599 mmHg 95%
    23:00 +12°C° 0.1 mm 2 m/S 599 mmHg 95%

    Morgen, 19 August, Montag

    Zeit Temperatur Niederschläge Wind Luftdruck Luftfeuchtigkeit
    00:00 +10°C° 0.1 mm 2 m/S 600 mmHg 95%
    01:00 +10°C° 0.1 mm 2 m/S 600 mmHg 95%
    02:00 +11°C° 0.1 mm 1 m/S 600 mmHg 95%
    03:00 +11°C° 0.1 mm 1 m/S 599 mmHg 96%
    04:00 +10°C° 0.1 mm 0 m/S 599 mmHg 96%
    05:00 +10°C° 0.1 mm 0 m/S 600 mmHg 95%
    06:00 +11°C° 0.1 mm 0 m/S 600 mmHg 93%
    07:00 +11°C° 0.1 mm 0 m/S 601 mmHg 92%
    08:00 +12°C° 0.4 mm 0 m/S 601 mmHg 90%
    09:00 +13°C° 0.4 mm 1 m/S 602 mmHg 88%
    10:00 +14°C° 0.4 mm 1 m/S 602 mmHg 86%
    11:00 +14°C° 0.5 mm 1 m/S 602 mmHg 81%
    12:00 +15°C° 0.5 mm 1 m/S 603 mmHg 76%
    13:00 +16°C° 0.5 mm 2 m/S 603 mmHg 71%
    14:00 +16°C° 1.2 mm 2 m/S 603 mmHg 75%
    15:00 +15°C° 1.2 mm 1 m/S 602 mmHg 78%
    16:00 +15°C° 1.2 mm 1 m/S 602 mmHg 82%
    17:00 +14°C° 1.2 mm 1 m/S 602 mmHg 87%
    18:00 +13°C° 1.2 mm 1 m/S 602 mmHg 92%
    19:00 +12°C° 1.2 mm 1 m/S 601 mmHg 96%
    20:00 +12°C° 1.2 mm 1 m/S 602 mmHg 96%
    21:00 +11°C° 1.2 mm 1 m/S 602 mmHg 96%
    22:00 +11°C° 1.2 mm 1 m/S 602 mmHg 96%
    23:00 +11°C° 0.4 mm 1 m/S 602 mmHg 95%

    übermorgen, 20 August, Dienstag

    Zeit Temperatur Niederschläge Wind Luftdruck Luftfeuchtigkeit
    00:00 +11°C° 0.4 mm 1 m/S 602 mmHg 94%
    01:00 +11°C° 0.4 mm 1 m/S 602 mmHg 93%
    02:00 +10°C° 0.2 mm 1 m/S 601 mmHg 93%
    03:00 +10°C° 0.2 mm 1 m/S 601 mmHg 92%
    04:00 +10°C° 0.2 mm 1 m/S 601 mmHg 92%
    05:00 +10°C° 0.1 mm 1 m/S 601 mmHg 90%
    06:00 +11°C° 0.1 mm 1 m/S 602 mmHg 87%
    07:00 +12°C° 0.1 mm 1 m/S 602 mmHg 85%
    08:00 +13°C° 0.1 mm 1 m/S 603 mmHg 78%
    09:00 +15°C° 0.1 mm 1 m/S 603 mmHg 72%
    10:00 +17°C° 0.1 mm 2 m/S 604 mmHg 65%
    11:00 +18°C° 0.3 mm 2 m/S 604 mmHg 64%
    12:00 +18°C° 0.3 mm 2 m/S 604 mmHg 64%
    13:00 +19°C° 0.3 mm 2 m/S 604 mmHg 63%
    14:00 +18°C° 0.6 mm 2 m/S 604 mmHg 67%
    15:00 +18°C° 0.6 mm 2 m/S 603 mmHg 71%
    16:00 +17°C° 0.6 mm 2 m/S 603 mmHg 75%
    17:00 +15°C° 0.6 mm 2 m/S 602 mmHg 82%
    18:00 +14°C° 0.6 mm 2 m/S 602 mmHg 88%
    19:00 +12°C° 0.6 mm 1 m/S 602 mmHg 95%
    20:00 +11°C° 0.5 mm 1 m/S 602 mmHg 96%
    21:00 +10°C° 0.5 mm 1 m/S 602 mmHg 97%
    22:00 +10°C° 0.5 mm 1 m/S 602 mmHg 98%
    23:00 +9°C° 0.1 mm 1 m/S 602 mmHg 98%

    21 August, Mittwoch

    Zeit Temperatur Niederschläge Wind Luftdruck Luftfeuchtigkeit
    00:00 +9°C° 0.1 mm 1 m/S 602 mmHg 98%
    01:00 +9°C° 0.1 mm 1 m/S 602 mmHg 98%
    02:00 +8°C° 0.1 mm 1 m/S 602 mmHg 98%
    03:00 +7°C° 0.1 mm 2 m/S 602 mmHg 98%
    04:00 +7°C° 0.1 mm 2 m/S 602 mmHg 98%
    05:00 +7°C° 0.1 mm 2 m/S 602 mmHg 98%
    06:00 +8°C° 0.1 mm 1 m/S 602 mmHg 97%
    07:00 +8°C° 0.1 mm 1 m/S 602 mmHg 97%
    08:00 +8°C° 0.2 mm 1 m/S 602 mmHg 96%
    09:00 +8°C° 0.2 mm 1 m/S 603 mmHg 96%
    10:00 +8°C° 0.2 mm 1 m/S 603 mmHg 95%
    11:00 +9°C° 0.3 mm 1 m/S 603 mmHg 92%
    12:00 +10°C° 0.3 mm 1 m/S 603 mmHg 89%
    13:00 +10°C° 0.3 mm 2 m/S 604 mmHg 86%
    14:00 +12°C° 0.2 mm 2 m/S 603 mmHg 85%
    15:00 +12°C° 0.2 mm 2 m/S 603 mmHg 84%
    16:00 +12°C° 0.2 mm 1 m/S 603 mmHg 83%
    17:00 +11°C° 0.2 mm 1 m/S 603 mmHg 87%
    18:00 +11°C° 0.2 mm 1 m/S 603 mmHg 91%
    19:00 +10°C° 0.2 mm 1 m/S 603 mmHg 94%
    20:00 +9°C° 0 mm 1 m/S 603 mmHg 95%
    21:00 +8°C° 0 mm 0 m/S 602 mmHg 96%
    22:00 +7°C° 0 mm 0 m/S 602 mmHg 97%
    23:00 +7°C° 0 mm 0 m/S 602 mmHg 96%

    22 August, Donnerstag

    Zeit Temperatur Niederschläge Wind Luftdruck Luftfeuchtigkeit
    00:00 +7°C° 0 mm 0 m/S 602 mmHg 95%
    01:00 +6°C° 0 mm 0 m/S 602 mmHg 94%
    02:00 +6°C° 0 mm 0 m/S 601 mmHg 94%
    03:00 +6°C° 0 mm 0 m/S 601 mmHg 94%
    04:00 +6°C° 0 mm 0 m/S 601 mmHg 93%
    05:00 +7°C° 0 mm 0 m/S 602 mmHg 90%
    06:00 +8°C° 0 mm 0 m/S 602 mmHg 87%
    07:00 +9°C° 0 mm 0 m/S 603 mmHg 84%
    08:00 +11°C° 0 mm 0 m/S 604 mmHg 77%
    09:00 +14°C° 0 mm 1 m/S 605 mmHg 71%
    10:00 +16°C° 0 mm 1 m/S 605 mmHg 64%
    11:00 +16°C° 0.3 mm 1 m/S 605 mmHg 65%
    12:00 +16°C° 0.3 mm 1 m/S 605 mmHg 65%
    13:00 +18°C° 0.3 mm 1 m/S 605 mmHg 66%
    14:00 +16°C° 1 mm 1 m/S 605 mmHg 71%
    15:00 +15°C° 1 mm 1 m/S 605 mmHg 75%
    16:00 +15°C° 1 mm 1 m/S 605 mmHg 80%
    17:00 +14°C° 0.6 mm 1 m/S 604 mmHg 84%
    18:00 +12°C° 0.6 mm 1 m/S 604 mmHg 89%
    19:00 +11°C° 0.6 mm 1 m/S 603 mmHg 93%
    20:00 +11°C° 0 mm 1 m/S 603 mmHg 94%
    21:00 +10°C° 0 mm 1 m/S 603 mmHg 94%
    22:00 +8°C° 0 mm 0 m/S 603 mmHg 94%
    23:00 +8°C° 0 mm 0 m/S 603 mmHg 94%

    23 August, Freitag

    Zeit Temperatur Niederschläge Wind Luftdruck Luftfeuchtigkeit
    00:00 +8°C° 0 mm 0 m/S 603 mmHg 94%
    01:00 +7°C° 0 mm 0 m/S 603 mmHg 93%
    02:00 +7°C° 0 mm 0 m/S 602 mmHg 93%
    03:00 +6°C° 0 mm 0 m/S 602 mmHg 92%
    04:00 +6°C° 0 mm 0 m/S 602 mmHg 91%
    05:00 +7°C° 0 mm 0 m/S 602 mmHg 88%
    06:00 +9°C° 0 mm 0 m/S 603 mmHg 84%
    07:00 +10°C° 0 mm 0 m/S 604 mmHg 81%
    08:00 +13°C° 0 mm 1 m/S 604 mmHg 73%
    09:00 +15°C° 0 mm 1 m/S 605 mmHg 65%
    10:00 +18°C° 0 mm 1 m/S 606 mmHg 58%
    11:00 +19°C° 0.1 mm 1 m/S 606 mmHg 56%
    12:00 +20°C° 0.1 mm 1 m/S 606 mmHg 54%
    13:00 +19°C° 0.1 mm 2 m/S 606 mmHg 52%
    14:00 +19°C° 0.9 mm 2 m/S 606 mmHg 57%
    15:00 +18°C° 0.9 mm 2 m/S 605 mmHg 62%
    16:00 +17°C° 0.9 mm 2 m/S 605 mmHg 67%
    17:00 +15°C° 0.8 mm 1 m/S 604 mmHg 74%
    18:00 +14°C° 0.8 mm 1 m/S 603 mmHg 82%
    19:00 +12°C° 0.8 mm 1 m/S 602 mmHg 89%
    20:00 +11°C° 0.1 mm 1 m/S 602 mmHg 88%
    21:00 +10°C° 0.1 mm 1 m/S 602 mmHg 88%
    22:00 +10°C° 0.1 mm 1 m/S 602 mmHg 87%
    23:00 +9°C° 0 mm 1 m/S 602 mmHg 87%
    Mehr zeigen